StationID,Date,MaxTemp,MinTemp,Precipitation,Snowfall,SnowDepth
"CA002101600","1969-03-01",26.96,-18.04,0.00,0.00,
"CA002101600","1969-03-02",24.98,-9.94,0.00,0.00,
"CA002101600","1969-03-03",32.00,-5.08,0.00,0.00,
"CA002101600","1969-03-04",33.08,-0.04,0.00,0.00,
"CA002101600","1969-03-05",32.00,-5.08,0.00,0.00,
"CA002101600","1969-03-06",32.00,-7.06,0.00,0.00,
"CA002101600","1969-03-07",37.04,12.02,15.00,15.00,
"CA002101600","1969-03-08",33.98,21.92,13.00,13.00,
"CA002101600","1969-03-09",35.06,17.96,0.00,0.00,
"CA002101600","1969-03-10",39.92,10.04,0.00,0.00,
"CA002101600","1969-03-11",37.94,21.02,0.00,0.00,
"CA002101600","1969-03-12",32.00,12.02,0.00,0.00,
"CA002101600","1969-03-13",32.00,-7.96,0.00,0.00,
"CA002101600","1969-03-14",19.94,1.94,25.00,25.00,
"CA002101600","1969-03-15",15.08,8.96,51.00,51.00,
"CA002101600","1969-03-16",12.02,-20.92,0.00,0.00,
"CA002101600","1969-03-17",19.04,-29.02,0.00,0.00,
"CA002101600","1969-03-18",21.02,-25.06,0.00,0.00,
"CA002101600","1969-03-19",28.04,-25.06,0.00,0.00,
"CA002101600","1969-03-20",35.96,15.08,0.00,0.00,
"CA002101600","1969-03-21",37.04,24.98,0.00,0.00,
"CA002101600","1969-03-22",37.04,8.96,0.00,0.00,
"CA002101600","1969-03-23",37.94,19.04,30.00,30.00,
"CA002101600","1969-03-24",33.98,24.98,56.00,56.00,
"CA002101600","1969-03-25",37.94,10.04,53.00,53.00,
"CA002101600","1969-03-26",35.06,26.06,5.00,5.00,
"CA002101600","1969-03-27",30.02,17.96,8.00,8.00,
"CA002101600","1969-03-28",35.06,19.04,0.00,0.00,
"CA002101600","1969-03-29",39.92,26.96,0.00,0.00,
"CA002101600","1969-03-30",44.96,10.94,0.00,0.00,
"CA002101600","1969-03-31",48.92,28.04,0.00,0.00,
"CA002101600","1969-04-01",44.06,32.00,0.00,0.00,
"CA002101600","1969-04-02",42.08,14.00,0.00,0.00,
"CA002101600","1969-04-03",39.92,17.96,0.00,0.00,
"CA002101600","1969-04-04",42.98,12.02,0.00,0.00,
"CA002101600","1969-04-05",42.98,8.96,0.00,0.00,
"CA002101600","1969-04-06",44.96,14.00,0.00,0.00,
"CA002101600","1969-04-07",42.98,19.04,0.00,0.00,
"CA002101600","1969-04-08",44.96,21.92,0.00,0.00,
"CA002101600","1969-04-09",46.04,24.98,0.00,0.00,
"CA002101600","1969-04-10",44.96,19.94,0.00,0.00,
"CA002101600","1969-04-11",42.08,26.06,0.00,0.00,
"CA002101600","1969-04-12",39.92,17.96,0.00,0.00,
"CA002101600","1969-04-13",39.92,12.02,0.00,0.00,
"CA002101600","1969-04-14",39.92,12.02,0.00,0.00,
"CA002101600","1969-04-15",39.92,17.96,0.00,0.00,
"CA002101600","1969-04-16",44.06,24.98,0.00,0.00,
"CA002101600","1969-04-17",46.04,26.06,0.00,0.00,
"CA002101600","1969-04-18",41.00,28.04,,,
"CA002101600","1969-04-19",41.00,28.94,0.00,0.00,
"CA002101600","1969-04-20",46.04,17.06,0.00,0.00,
"CA002101600","1969-04-21",42.98,23.00,0.00,0.00,
"CA002101600","1969-04-22",44.06,24.08,0.00,0.00,
"CA002101600","1969-04-23",50.00,17.96,0.00,0.00,
"CA002101600","1969-04-24",48.02,32.00,0.00,0.00,
"CA002101600","1969-04-25",46.04,28.04,0.00,0.00,
"CA002101600","1969-04-26",48.02,33.08,0.00,0.00,
"CA002101600","1969-04-27",48.02,33.98,0.00,0.00,
"CA002101600","1969-04-28",44.96,15.98,0.00,0.00,
"CA002101600","1969-04-29",48.02,17.96,0.00,0.00,
"CA002101600","1969-04-30",50.00,19.94,0.00,0.00,
"CA002101600","1969-05-01",46.04,28.94,0.00,0.00,
"CA002101600","1969-05-02",50.00,32.00,0.00,0.00,
"CA002101600","1969-05-03",41.00,26.06,0.00,0.00,
"CA002101600","1969-05-04",48.02,26.06,0.00,0.00,
"CA002101600","1969-05-05",44.06,26.96,0.00,0.00,
"CA002101600","1969-05-06",51.08,26.96,0.00,0.00,
"CA002101600","1969-05-07",46.94,30.92,0.00,0.00,
"CA002101600","1969-05-08",51.98,24.98,0.00,0.00,
"CA002101600","1969-05-09",57.92,23.00,0.00,0.00,
"CA002101600","1969-05-10",55.04,33.98,0.00,0.00,
"CA002101600","1969-05-11",51.08,33.98,0.00,0.00,
"CA002101600","1969-05-12",50.00,24.98,0.00,0.00,
"CA002101600","1969-05-13",57.02,28.94,0.00,0.00,
"CA002101600","1969-05-14",50.00,23.00,5.00,0.00,
"CA002101600","1969-05-15",59.00,21.92,0.00,0.00,
"CA002101600","1969-05-16",57.92,21.92,0.00,0.00,
"CA002101600","1969-05-17",60.98,26.96,0.00,0.00,
"CA002101600","1969-05-18",69.98,21.02,0.00,0.00,
"CA002101600","1969-05-19",69.08,24.08,0.00,0.00,
"CA002101600","1969-05-20",55.04,30.02,0.00,0.00,
"CA002101600","1969-05-21",60.08,32.00,0.00,0.00,
"CA002101600","1969-05-22",,33.08,0.00,0.00,
"CA002101600","1969-05-23",78.08,44.96,0.00,0.00,
"CA002101600","1969-05-24",73.94,33.98,0.00,0.00,
"CA002101600","1969-05-25",62.06,46.94,0.00,0.00,
"CA002101600","1969-05-26",60.98,19.94,0.00,0.00,
"CA002101600","1969-05-27",60.08,30.02,0.00,0.00,
"CA002101600","1969-05-28",64.04,30.02,0.00,0.00,
"CA002101600","1969-05-29",62.06,32.00,0.00,0.00,
"CA002101600","1969-05-30",57.02,33.08,15.00,0.00,
"CA002101600","1969-05-31",50.00,39.02,10.00,0.00,
"CA002101600","1969-07-01",60.08,39.92,71.00,0.00,
"CA002101600","1969-07-02",57.92,44.06,23.00,0.00,
"CA002101600","1969-07-03",68.00,33.08,0.00,0.00,
"CA002101600","1969-07-04",69.98,41.00,8.00,0.00,
"CA002101600","1969-07-05",68.00,42.08,0.00,0.00,
"CA002101600","1969-07-06",64.04,46.04,10.00,0.00,
"CA002101600","1969-07-07",66.02,46.04,5.00,0.00,
"CA002101600","1969-07-08",64.94,44.06,0.00,0.00,
"CA002101600","1969-07-09",57.02,35.96,25.00,0.00,
"CA002101600","1969-07-10",62.96,35.96,28.00,0.00,
"CA002101600","1969-07-11",64.94,39.92,5.00,0.00,
"CA002101600","1969-07-12",55.94,39.92,86.00,0.00,
"CA002101600","1969-07-13",60.08,42.08,0.00,0.00,
"CA002101600","1969-07-14",73.04,33.08,0.00,0.00,
"CA002101600","1969-07-15",75.92,46.04,8.00,0.00,
"CA002101600","1969-07-16",73.94,41.00,0.00,0.00,
"CA002101600","1969-07-17",71.96,37.94,0.00,0.00,
"CA002101600","1969-07-18",73.04,42.98,0.00,0.00,
"CA002101600","1969-07-19",66.92,42.08,0.00,0.00,
"CA002101600","1969-07-20",62.96,42.08,89.00,0.00,
"CA002101600","1969-07-21",64.04,33.08,0.00,0.00,
"CA002101600","1969-07-22",68.00,35.96,0.00,0.00,
"CA002101600","1969-07-23",55.04,39.02,10.00,0.00,
"CA002101600","1969-07-24",62.96,39.02,18.00,0.00,
"CA002101600","1969-07-25",51.98,30.92,104.00,0.00,
"CA002101600","1969-07-26",55.94,33.98,89.00,0.00,
"CA002101600","1969-07-27",66.02,28.94,0.00,0.00,
"CA002101600","1969-07-28",64.94,39.92,0.00,0.00,
"CA002101600","1969-07-29",57.92,44.06,0.00,0.00,
"CA002101600","1969-07-30",62.06,44.06,0.00,0.00,
"CA002101600","1969-07-31",57.92,42.08,0.00,0.00,
"CA002101600","1969-08-01",62.06,42.08,0.00,0.00,
"CA002101600","1969-08-02",69.08,28.94,15.00,0.00,
"CA002101600","1969-08-03",71.06,42.98,0.00,0.00,
"CA002101600","1969-08-04",75.02,37.94,0.00,0.00,
"CA002101600","1969-08-05",71.96,39.92,0.00,0.00,
"CA002101600","1969-08-06",62.06,42.98,66.00,0.00,
"CA002101600","1969-08-07",48.02,28.94,91.00,0.00,
"CA002101600","1969-08-08",51.08,32.00,0.00,0.00,
"CA002101600","1969-08-09",57.92,33.98,0.00,0.00,
"CA002101600","1969-08-10",55.04,30.02,0.00,0.00,
"CA002101600","1969-08-11",42.08,26.96,0.00,0.00,
"CA002101600","1969-08-12",48.02,23.00,124.00,0.00,
"CA002101600","1969-08-13",51.98,32.00,66.00,0.00,
"CA002101600","1969-08-14",53.06,32.00,0.00,0.00,
"CA002101600","1969-08-15",50.00,30.02,0.00,0.00,
"CA002101600","1969-08-16",55.94,33.08,0.00,0.00,
"CA002101600","1969-08-17",57.02,37.04,46.00,0.00,
"CA002101600","1969-08-18",48.92,39.02,61.00,0.00,
"CA002101600","1969-08-19",53.06,28.94,38.00,0.00,
"CA002101600","1969-08-20",46.04,33.98,74.00,0.00,
"CA002101600","1969-08-21",44.06,35.96,10.00,0.00,
"CA002101600","1969-08-22",55.04,35.06,0.00,0.00,
"CA002101600","1969-08-23",57.92,26.06,0.00,0.00,
"CA002101600","1969-08-24",64.94,24.98,0.00,0.00,
"CA002101600","1969-08-25",64.94,26.06,0.00,0.00,
"CA002101600","1969-08-26",62.06,42.08,0.00,0.00,
"CA002101600","1969-08-27",62.06,26.06,0.00,0.00,
"CA002101600","1969-08-28",62.96,24.98,0.00,0.00,
"CA002101600","1969-08-29",55.94,32.00,0.00,0.00,
"CA002101600","1969-08-30",59.00,32.00,0.00,0.00,
"CA002101600","1969-08-31",64.94,28.94,0.00,0.00,
"CA002101600","1969-09-01",60.08,28.04,150.00,0.00,
"CA002101600","1969-09-02",59.00,39.02,0.00,0.00,
"CA002101600","1969-09-03",59.00,28.94,0.00,0.00,
"CA002101600","1969-09-04",55.04,37.94,0.00,0.00,
"CA002101600","1969-09-05",51.08,30.02,51.00,0.00,
"CA002101600","1969-09-06",55.04,28.94,0.00,0.00,
"CA002101600","1969-09-07",51.98,33.08,0.00,0.00,
"CA002101600","1969-09-08",55.04,26.06,10.00,0.00,
"CA002101600","1969-09-09",53.06,39.92,0.00,0.00,
"CA002101600","1969-09-10",55.94,41.00,0.00,0.00,
"CA002101600","1969-09-11",48.02,33.98,38.00,0.00,
"CA002101600","1969-09-12",46.04,33.98,51.00,0.00,
"CA002101600","1969-09-13",53.96,37.94,25.00,0.00,
"CA002101600","1969-09-14",50.00,28.94,0.00,0.00,
"CA002101600","1969-09-15",46.04,28.04,0.00,0.00,
"CA002101600","1969-09-16",51.98,26.96,0.00,0.00,
"CA002101600","1969-09-17",55.94,26.96,0.00,0.00,
"CA002101600","1969-09-18",48.02,35.96,0.00,0.00,
"CA002101600","1969-09-19",48.92,37.94,0.00,0.00,
"CA002101600","1969-09-20",48.02,33.98,0.00,0.00,
"CA002101600","1969-09-21",51.08,28.04,0.00,0.00,
"CA002101600","1969-09-22",48.02,37.94,0.00,0.00,
"CA002101600","1969-09-23",57.02,28.04,0.00,0.00,
"CA002101600","1969-09-24",44.06,37.94,69.00,0.00,
"CA002101600","1969-09-25",46.94,30.02,0.00,0.00,
"CA002101600","1969-09-26",50.00,24.98,0.00,0.00,
"CA002101600","1969-09-27",51.98,23.00,0.00,0.00,
"CA002101600","1969-09-28",53.96,24.08,0.00,0.00,
"CA002101600","1969-09-29",51.08,32.00,0.00,0.00,
"CA002101600","1969-09-30",51.98,28.04,0.00,0.00,
"CA002101600","1969-10-01",48.92,28.04,,,
"CA002101600","1969-10-02",53.06,26.06,,,
"CA002101600","1969-10-03",50.00,35.96,,,
"CA002101600","1969-10-04",53.06,39.92,,,
"CA002101600","1969-10-05",48.02,26.96,,,
"CA002101600","1969-10-06",62.06,39.92,,,
"CA002101600","1969-10-07",57.92,33.98,,,
"CA002101600","1969-10-08",50.00,37.94,,,
"CA002101600","1969-10-09",50.00,24.08,,,
"CA002101600","1969-10-10",50.00,23.00,,,
"CA002101600","1969-10-11",51.08,30.02,,,
"CA002101600","1969-10-12",57.02,32.00,,,
"CA002101600","1969-10-13",55.04,21.02,,,
"CA002101600","1969-10-14",53.96,19.04,,,
"CA002101600","1969-10-15",50.00,15.08,,,
"CA002101600","1969-10-16",53.06,15.98,,,
"CA002101600","1969-10-17",46.04,15.08,,,
"CA002101600","1969-10-18",44.06,28.04,,,
"CA002101600","1969-10-19",44.96,23.00,,,
"CA002101600","1969-10-20",41.00,24.98,,,
"CA002101600","1969-10-21",37.94,21.92,,,
"CA002101600","1969-10-22",33.98,28.94,,,
"CA002101600","1969-10-23",35.96,17.06,,,
"CA002101600","1969-10-24",26.06,-2.02,,,
"CA002101600","1969-10-25",26.06,3.92,,,
"CA002101600","1969-10-26",28.04,-0.04,,,
"CA002101600","1969-10-27",23.00,5.00,,,
"CA002101600","1969-10-28",28.04,6.98,,,
"CA002101600","1969-10-29",35.06,15.98,,,
"CA002101600","1969-10-30",41.00,21.02,,,
"CA002101600","1969-10-31",39.92,23.00,,,
"CA002101600","1969-11-01",46.94,30.92,0.00,0.00,
"CA002101600","1969-11-02",46.04,32.00,0.00,0.00,
"CA002101600","1969-11-03",39.02,12.02,0.00,0.00,
"CA002101600","1969-11-04",28.04,6.08,18.00,18.00,
"CA002101600","1969-11-05",30.02,12.92,23.00,23.00,
"CA002101600","1969-11-06",33.08,17.96,,,
"CA002101600","1969-11-07",33.98,17.06,0.00,0.00,
"CA002101600","1969-11-08",33.08,6.98,0.00,0.00,
"CA002101600","1969-11-09",35.06,21.02,0.00,0.00,
"CA002101600","1969-11-10",21.92,14.00,0.00,0.00,
"CA002101600","1969-11-11",15.98,-11.02,0.00,0.00,
"CA002101600","1969-11-12",8.06,-29.92,0.00,0.00,
"CA002101600","1969-11-13",15.08,-0.94,0.00,0.00,
"CA002101600","1969-11-14",8.06,3.92,,,
"CA002101600","1969-11-15",5.00,-7.06,,,
"CA002101600","1969-11-16",-7.96,-14.98,,,
"CA002101600","1969-11-17",-13.00,-38.02,0.00,0.00,
"CA002101600","1969-11-18",-7.06,-38.02,10.00,10.00,
"CA002101600","1969-11-19",6.08,-11.02,15.00,15.00,
"CA002101600","1969-11-20",6.98,3.02,0.00,0.00,
"CA002101600","1969-11-21",14.00,-5.08,0.00,0.00,
"CA002101600","1969-11-22",19.94,3.02,,,
"CA002101600","1969-11-23",19.04,10.04,0.00,0.00,
"CA002101600","1969-11-24",24.98,-9.94,0.00,0.00,
"CA002101600","1969-11-25",33.98,12.02,15.00,15.00,
"CA002101600","1969-11-26",33.98,24.08,0.00,0.00,
"CA002101600","1969-11-27",28.04,6.08,0.00,0.00,
"CA002101600","1969-11-28",37.04,10.04,0.00,0.00,
"CA002101600","1969-11-29",28.04,23.00,,,
"CA002101600","1969-11-30",35.96,23.00,0.00,0.00,
"CA002101600","1969-12-01",28.94,8.06,10.00,10.00,
"CA002101600","1969-12-02",32.00,10.04,0.00,0.00,
"CA002101600","1969-12-03",30.02,12.92,0.00,0.00,
"CA002101600","1969-12-04",21.92,8.06,0.00,0.00,
"CA002101600","1969-12-05",26.96,5.00,0.00,0.00,
"CA002101600","1969-12-06",32.00,12.92,0.00,0.00,
"CA002101600","1969-12-07",37.94,12.02,0.00,0.00,
"CA002101600","1969-12-08",30.02,14.00,0.00,0.00,
"CA002101600","1969-12-09",10.94,-4.00,0.00,0.00,
"CA002101600","1969-12-10",10.94,-7.96,0.00,0.00,
"CA002101600","1969-12-11",8.96,1.04,20.00,20.00,
"CA002101600","1969-12-12",12.92,-7.96,0.00,0.00,
"CA002101600","1969-12-13",14.00,-5.08,0.00,0.00,
"CA002101600","1969-12-14",15.98,3.92,0.00,0.00,
"CA002101600","1969-12-15",17.96,-5.98,0.00,0.00,
"CA002101600","1969-12-16",12.92,-2.02,0.00,0.00,
"CA002101600","1969-12-17",12.02,-7.96,0.00,0.00,
"CA002101600","1969-12-18",8.96,-5.08,0.00,0.00,
"CA002101600","1969-12-19",10.94,1.04,0.00,0.00,
"CA002101600","1969-12-20",5.00,-5.08,0.00,0.00,
"CA002101600","1969-12-21",8.06,-9.94,20.00,20.00,
"CA002101600","1969-12-22",5.00,-2.02,20.00,20.00,
"CA002101600","1969-12-23",5.00,-5.08,15.00,15.00,
"CA002101600","1969-12-24",8.06,-5.98,3.00,3.00,
"CA002101600","1969-12-25",8.96,-5.08,0.00,0.00,
"CA002101600","1969-12-26",3.02,-11.92,0.00,0.00,
"CA002101600","1969-12-27",24.98,-14.08,0.00,0.00,
"CA002101600","1969-12-28",30.92,14.00,0.00,0.00,
"CA002101600","1969-12-29",28.04,21.92,0.00,0.00,
"CA002101600","1969-12-30",33.98,8.96,0.00,0.00,
"CA002101600","1969-12-31",33.98,17.96,0.00,0.00,
"CA002101600","1970-01-01",33.98,15.98,0.00,0.00,
"CA002101600","1970-01-02",10.04,-7.96,0.00,0.00,
"CA002101600","1970-01-03",15.98,-5.08,,,
"CA002101600","1970-01-04",-2.02,-5.08,,,
"CA002101600","1970-01-05",-9.94,-18.94,8.00,8.00,
"CA002101600","1970-01-06",5.00,-23.08,8.00,8.00,
"CA002101600","1970-01-07",-2.02,-11.02,0.00,0.00,
"CA002101600","1970-01-08",1.04,-18.04,0.00,0.00,
"CA002101600","1970-01-09",-0.94,-7.06,0.00,0.00,
"CA002101600","1970-01-10",-5.98,-16.96,0.00,0.00,
"CA002101600","1970-01-11",-16.96,-40.00,0.00,0.00,
"CA002101600","1970-01-12",-18.94,-50.08,0.00,0.00,
"CA002101600","1970-01-13",-34.96,-43.06,0.00,0.00,
"CA002101600","1970-01-14",-29.92,-43.06,0.00,0.00,
"CA002101600","1970-01-15",-23.08,-50.98,0.00,0.00,
"CA002101600","1970-01-16",-16.06,-34.06,0.00,0.00,
"CA002101600","1970-01-17",-7.06,-23.08,0.00,0.00,
"CA002101600","1970-01-18",-2.92,-18.94,0.00,0.00,
"CA002101600","1970-01-19",10.94,-7.06,0.00,0.00,
"CA002101600","1970-01-20",17.96,-0.94,0.00,0.00,
"CA002101600","1970-01-21",21.92,8.96,0.00,0.00,
"CA002101600","1970-01-22",23.00,3.02,0.00,0.00,
"CA002101600","1970-01-23",17.96,-5.98,0.00,0.00,
"CA002101600","1970-01-24",17.96,12.02,0.00,0.00,
"CA002101600","1970-01-25",12.02,3.02,0.00,0.00,
"CA002101600","1970-01-26",12.92,-2.02,15.00,15.00,
"CA002101600","1970-01-27",19.94,-2.02,0.00,0.00,
"CA002101600","1970-01-28",30.02,3.02,,,
"CA002101600","1970-01-29",30.92,10.04,0.00,0.00,
"CA002101600","1970-01-30",12.92,-5.08,,,
"CA002101600","1970-01-31",8.06,-4.00,0.00,0.00,
"CA002101600","1970-02-01",12.02,-16.06,71.00,71.00,
"CA002101600","1970-02-02",28.04,1.04,0.00,0.00,
"CA002101600","1970-02-03",28.04,15.98,0.00,0.00,
"CA002101600","1970-02-04",37.94,10.04,0.00,0.00,
"CA002101600","1970-02-05",35.96,19.94,0.00,0.00,
"CA002101600","1970-02-06",33.08,21.02,0.00,0.00,
"CA002101600","1970-02-07",33.08,12.92,0.00,0.00,
"CA002101600","1970-02-08",28.94,-4.00,0.00,0.00,
"CA002101600","1970-02-09",19.94,-11.92,0.00,0.00,
"CA002101600","1970-02-10",17.96,-5.08,0.00,0.00,
"CA002101600","1970-02-11",24.98,5.00,0.00,0.00,
"CA002101600","1970-02-12",28.04,5.00,0.00,0.00,
"CA002101600","1970-02-13",24.98,-7.06,0.00,0.00,
"CA002101600","1970-02-14",24.98,-2.92,0.00,0.00,
"CA002101600","1970-02-15",35.96,15.08,0.00,0.00,
"CA002101600","1970-02-16",33.08,-2.02,0.00,0.00,
"CA002101600","1970-02-17",19.94,-18.04,0.00,0.00,
"CA002101600","1970-02-18",28.04,-2.02,0.00,0.00,
"CA002101600","1970-02-19",39.92,17.96,0.00,0.00,
"CA002101600","1970-02-20",37.04,12.92,0.00,0.00,
"CA002101600","1970-02-21",35.96,3.92,3.00,3.00,
"CA002101600","1970-02-22",42.08,15.98,0.00,0.00,
"CA002101600","1970-02-23",42.98,14.00,0.00,0.00,
"CA002101600","1970-02-24",44.96,21.02,0.00,0.00,
"CA002101600","1970-02-25",35.96,14.00,0.00,0.00,
"CA002101600","1970-02-26",37.94,1.94,0.00,0.00,
"CA002101600","1970-02-27",32.00,-11.92,0.00,0.00,
"CA002101600","1970-02-28",32.00,6.08,0.00,0.00,
"CA002101600","1970-03-01",24.98,-13.00,,,
"CA002101600","1970-03-02",21.92,-0.04,,,
"CA002101600","1970-03-03",21.92,-11.02,,,
"CA002101600","1970-03-04",17.96,-18.04,,,
"CA002101600","1970-03-05",30.02,1.94,,,
"CA002101600","1970-03-06",37.94,-2.92,,,
"CA002101600","1970-03-07",37.94,5.00,,,
"CA002101600","1970-03-08",35.96,5.00,,,
"CA002101600","1970-03-09",37.94,19.04,,,
"CA002101600","1970-03-10",35.96,14.00,,,
"CA002101600","1970-03-11",33.98,1.94,,,
"CA002101600","1970-03-12",28.04,1.94,,,
"CA002101600","1970-03-13",37.94,3.02,,,
"CA002101600","1970-03-14",41.00,1.94,,,
"CA002101600","1970-03-15",39.92,21.92,,,
"CA002101600","1970-03-16",41.00,3.02,,,
"CA002101600","1970-03-17",42.08,15.08,,,
"CA002101600","1970-03-18",39.92,28.04,,,
"CA002101600","1970-03-19",33.98,21.92,,,
"CA002101600","1970-03-20",37.04,3.92,,,
"CA002101600","1970-03-21",37.94,14.00,,,
"CA002101600","1970-03-22",37.94,24.98,,,
"CA002101600","1970-03-23",35.06,12.02,,,
"CA002101600","1970-03-24",37.94,-0.04,,,
"CA002101600","1970-03-25",44.06,6.08,,,
"CA002101600","1970-03-26",48.92,14.00,,,
"CA002101600","1970-03-27",46.04,17.06,,,
"CA002101600","1970-03-28",44.96,28.04,,,
"CA002101600","1970-03-29",44.96,19.04,,,
"CA002101600","1970-03-30",44.96,24.98,,,
"CA002101600","1970-03-31",42.08,26.96,,,
"CA002101600","1970-04-01",42.08,15.98,0.00,0.00,
"CA002101600","1970-04-02",33.08,14.00,0.00,0.00,
"CA002101600","1970-04-03",37.94,23.00,0.00,0.00,
"CA002101600","1970-04-04",39.92,12.92,0.00,0.00,
"CA002101600","1970-04-05",37.04,14.00,0.00,0.00,
"CA002101600","1970-04-06",33.98,24.98,56.00,56.00,
"CA002101600","1970-04-07",33.98,-2.02,0.00,0.00,
"CA002101600","1970-04-08",37.94,24.08,0.00,0.00,
"CA002101600","1970-04-09",42.98,12.92,8.00,8.00,
"CA002101600","1970-04-10",42.08,17.06,0.00,0.00,
"CA002101600","1970-04-11",35.06,10.94,0.00,0.00,
"CA002101600","1970-04-12",37.94,14.00,0.00,0.00,
"CA002101600","1970-04-13",42.08,10.94,0.00,0.00,
"CA002101600","1970-04-14",44.96,14.00,0.00,0.00,
"CA002101600","1970-04-15",50.00,3.92,0.00,0.00,
"CA002101600","1970-04-16",42.98,12.02,0.00,0.00,
"CA002101600","1970-04-17",44.96,28.04,0.00,0.00,
"CA002101600","1970-04-18",44.96,12.02,0.00,0.00,
"CA002101600","1970-04-19",46.04,19.04,0.00,0.00,
"CA002101600","1970-04-20",44.96,19.94,0.00,0.00,
"CA002101600","1970-04-21",44.06,19.94,0.00,0.00,
"CA002101600","1970-04-22",39.92,17.06,0.00,0.00,
"CA002101600","1970-04-23",35.06,19.94,0.00,0.00,
"CA002101600","1970-04-24",42.08,21.02,0.00,0.00,
"CA002101600","1970-04-25",39.02,28.04,0.00,0.00,
"CA002101600","1970-04-26",44.96,19.04,0.00,0.00,
"CA002101600","1970-04-27",44.06,21.92,0.00,0.00,
"CA002101600","1970-04-28",44.96,26.96,0.00,0.00,
"CA002101600","1970-04-29",48.02,24.98,0.00,0.00,
"CA002101600","1970-04-30",44.06,21.02,0.00,0.00,
"CA002101600","1970-05-01",44.06,21.02,0.00,0.00,
"CA002101600","1970-05-02",42.98,19.94,0.00,0.00,
"CA002101600","1970-05-03",44.96,6.98,0.00,0.00,
"CA002101600","1970-05-04",48.02,30.02,15.00,0.00,
"CA002101600","1970-05-05",48.02,26.06,0.00,0.00,
"CA002101600","1970-05-06",46.94,26.96,0.00,0.00,
"CA002101600","1970-05-07",53.96,14.00,0.00,0.00,
"CA002101600","1970-05-08",51.98,15.98,0.00,0.00,
"CA002101600","1970-05-09",53.06,21.02,109.00,0.00,
"CA002101600","1970-05-10",60.08,24.08,0.00,0.00,
"CA002101600","1970-05-11",64.04,15.08,0.00,0.00,
"CA002101600","1970-05-12",64.94,26.06,0.00,0.00,
"CA002101600","1970-05-13",62.06,35.06,0.00,0.00,
"CA002101600","1970-05-14",53.06,28.94,0.00,0.00,
"CA002101600","1970-05-15",53.06,26.96,28.00,0.00,
"CA002101600","1970-05-16",50.00,30.92,0.00,0.00,
"CA002101600","1970-05-17",55.94,24.98,0.00,0.00,
"CA002101600","1970-05-18",55.04,24.98,0.00,0.00,
"CA002101600","1970-05-19",57.92,26.06,0.00,0.00,
"CA002101600","1970-05-20",57.92,21.92,0.00,0.00,
"CA002101600","1970-05-21",59.00,33.08,13.00,0.00,
"CA002101600","1970-05-22",53.06,28.04,0.00,0.00,
"CA002101600","1970-05-23",53.06,28.04,0.00,0.00,
"CA002101600","1970-05-24",53.96,32.00,0.00,0.00,
"CA002101600","1970-05-25",53.96,30.02,0.00,0.00,
"CA002101600","1970-05-26",51.98,26.06,56.00,0.00,
"CA002101600","1970-05-27",55.04,28.04,8.00,0.00,
"CA002101600","1970-05-28",60.08,32.00,0.00,0.00,
"CA002101600","1970-05-29",62.06,32.00,0.00,0.00,
"CA002101600","1970-05-30",60.08,28.94,8.00,0.00,
"CA002101600","1970-05-31",59.00,32.00,0.00,0.00,
"CA002101600","1970-06-01",59.00,39.02,0.00,0.00,
"CA002101600","1970-06-02",55.94,30.02,5.00,0.00,
"CA002101600","1970-06-03",60.08,35.96,0.00,0.00,
"CA002101600","1970-06-04",57.92,41.00,0.00,0.00,
"CA002101600","1970-06-05",62.06,39.02,0.00,0.00,
"CA002101600","1970-06-06",60.08,28.04,0.00,0.00,
"CA002101600","1970-06-07",60.08,30.92,84.00,0.00,
"CA002101600","1970-06-08",53.96,32.00,0.00,0.00,
"CA002101600","1970-06-09",60.08,26.96,0.00,0.00,
"CA002101600","1970-06-10",62.96,28.04,0.00,0.00,
"CA002101600","1970-06-11",64.94,28.94,0.00,0.00,
"CA002101600","1970-06-12",62.06,35.96,0.00,0.00,
"CA002101600","1970-06-13",62.06,39.92,5.00,0.00,
"CA002101600","1970-06-14",62.06,42.08,0.00,0.00,
"CA002101600","1970-06-15",64.94,30.92,0.00,0.00,
"CA002101600","1970-06-16",69.98,28.94,0.00,0.00,
"CA002101600","1970-06-17",60.08,24.98,0.00,0.00,
"CA002101600","1970-06-18",62.96,39.92,0.00,0.00,
"CA002101600","1970-06-19",66.02,30.92,0.00,0.00,
"CA002101600","1970-06-20",64.04,33.98,0.00,0.00,
"CA002101600","1970-06-21",66.02,33.08,13.00,0.00,
"CA002101600","1970-06-22",60.98,37.04,0.00,0.00,
"CA002101600","1970-06-23",62.96,28.94,0.00,0.00,
"CA002101600","1970-06-24",57.92,28.04,8.00,0.00,
"CA002101600","1970-06-25",55.94,26.96,0.00,0.00,
"CA002101600","1970-06-26",57.92,26.06,0.00,0.00,
"CA002101600","1970-06-27",62.96,37.94,5.00,0.00,
"CA002101600","1970-06-28",59.00,44.06,0.00,0.00,
"CA002101600","1970-06-29",62.06,33.98,8.00,0.00,
"CA002101600","1970-06-30",71.06,42.08,0.00,0.00,
"CA002101600","1970-07-01",71.06,,0.00,0.00,
"CA002101600","1970-07-02",68.00,,0.00,0.00,
"CA002101600","1970-07-03",66.92,,0.00,0.00,
"CA002101600","1970-07-04",68.00,,0.00,0.00,
"CA002101600","1970-07-05",60.08,,0.00,0.00,
"CA002101600","1970-07-06",59.00,,0.00,0.00,
"CA002101600","1970-07-07",51.98,,0.00,0.00,
"CA002101600","1970-07-08",55.04,,0.00,0.00,
"CA002101600","1970-07-09",62.06,,0.00,0.00,
"CA002101600","1970-07-10",64.04,,28.00,0.00,
"CA002101600","1970-07-11",66.92,,0.00,0.00,
"CA002101600","1970-07-12",64.04,,0.00,0.00,
"CA002101600","1970-07-13",62.96,,13.00,0.00,
"CA002101600","1970-07-14",62.96,,0.00,0.00,
"CA002101600","1970-07-15",55.94,,0.00,0.00,
"CA002101600","1970-07-16",60.98,,0.00,0.00,
"CA002101600","1970-07-17",64.04,,33.00,0.00,
"CA002101600","1970-07-18",62.06,,0.00,0.00,
"CA002101600","1970-07-19",59.00,,0.00,0.00,
"CA002101600","1970-07-20",53.96,,10.00,0.00,
"CA002101600","1970-07-21",69.98,,0.00,0.00,
"CA002101600","1970-07-22",55.04,,5.00,0.00,
"CA002101600","1970-07-23",71.96,,0.00,0.00,
"CA002101600","1970-07-24",69.98,,0.00,0.00,
"CA002101600","1970-07-25",71.96,,0.00,0.00,